Weather History for Comox, BC

Change the Weather History Date:

Thursday, June 27, 2013

  Actual Average Record
Temperature  
Mean Temperature 58 °F -  
Max Temperature 62 °F 72 °F 82 °F (2000)
Min Temperature 55 °F 54 °F 50 °F (1997)
Degree Days  
Heating Degree Days 6    
Growing Degree Days 8 (Base 50)    
Moisture  
Dew Point 57 °F    
Average Humidity 93    
Maximum Humidity 100    
Minimum Humidity 82    
Precipitation  
Precipitation 0.03 in 0.04 in - ()
Sea Level Pressure  
Sea Level Pressure 30.12 in    
Wind  
Wind Speed 6 mph ()    
Max Wind Speed 16 mph    
Max Gust Speed 21 mph    
Visibility 12.6 miles    
Events Fog , Rain    
Averages and records for this station are not official NWS values.
T = Trace of Precipitation, MM = Missing Value Source: Averaged Metar Reports

Daily Weather History Graph

Daily Weather History Graph

Search for Another Location

Airport:

Trip Planner

Search our weather history database for the weather conditions in past years. The results will help you decide how hot, cold, wet, or windy it might be!

Date:

Astronomy

Jun. 27, 2013 Rise Set
Actual Time 5:13 AM PDT 9:31 PM PDT
Civil Twilight 4:30 AM PDT 10:15 PM PDT
Nautical Twilight 3:26 AM PDT 11:18 PM PDT
Astronomical Twilight 1:55 AM PDT 12:50 AM PDT
Moon 11:56 PM PDT (6/27) 10:53 AM PDT (6/27)
Length of Visible Light 17h 45m
Length of Day
16h 17m
Waning Gibbous, 75% of the Moon is Illuminated
Jun 27
Waning Gibbous
Jun 29
Last Quarter
Jul 8
New
Jul 15
First Quarter
Jul 22
Full

Hourly Weather History & Observations

Time (PDT) Temp. Dew Point Humidity Pressure Visibility Wind Dir Wind Speed Gust Speed Precip Events Conditions
12:00 AM 59.0 °F 53.6 °F 82% 30.07 in 20.0 mi SE 6.9 mph - N/A   Mostly Cloudy
1:00 AM 57.2 °F 53.6 °F 88% 30.07 in 20.0 mi SSE 6.9 mph - N/A   Mostly Cloudy
2:00 AM 59.0 °F 53.6 °F 82% 30.07 in 20.0 mi SSW 3.5 mph - N/A   Mostly Cloudy
3:00 AM 57.2 °F 53.6 °F 88% 30.06 in 20.0 mi Calm Calm - N/A   Overcast
3:47 AM - - N/A% - 20.0 mi Calm Calm - N/A Rain Light Rain Showers
4:00 AM 59.0 °F 55.4 °F 88% 30.05 in 20.0 mi Calm Calm - N/A Rain Light Rain Showers
5:00 AM 56 °F 55 °F 95% 30.05 in 10 mi WSW 3.5 mph - - Rain Light Rain Showers
5:00 AM 57.2 °F 55.4 °F 94% 30.05 in 10.0 mi West 2.3 mph - N/A Rain Light Rain Showers
6:00 AM 55.4 °F 55.4 °F 100% 30.05 in 6.0 mi Calm Calm - N/A Rain Light Rain Showers
6:07 AM - - N/A% - 6.0 mi North 2.3 mph - N/A Rain Light Rain
6:30 AM - - N/A% - 6.0 mi East 3.5 mph - N/A Fog , Rain Light Rain
7:00 AM 55.4 °F 55.4 °F 100% 30.05 in 3.0 mi Calm Calm - N/A Fog , Rain Light Rain
8:00 AM 57.2 °F 55.4 °F 94% 30.06 in 3.0 mi East 2.3 mph - N/A Rain Light Rain
9:00 AM 57.2 °F 57.2 °F 100% 30.06 in 5.0 mi SSE 6.9 mph - N/A Rain Light Rain
10:00 AM 57.2 °F 57.2 °F 100% 30.08 in 5.0 mi SSE 15.0 mph - N/A Rain Light Rain
10:30 AM - - N/A% - 5.0 mi SE 15.0 mph 20.7 mph N/A Rain Light Rain
11:00 AM 57.2 °F 57.2 °F 100% 30.10 in 8.0 mi SSE 15.0 mph - N/A Rain Light Rain
12:00 PM 59.0 °F 59.0 °F 100% 30.11 in 10.0 mi SE 10.4 mph - N/A Rain Light Rain
1:00 PM 59.0 °F 59.0 °F 100% 30.12 in 10.0 mi SE 13.8 mph - N/A Rain Light Rain
2:00 PM 60.8 °F 59.0 °F 94% 30.13 in 15.0 mi SE 11.5 mph - N/A Rain Light Rain
2:44 PM - - N/A% - 15.0 mi SE 11.5 mph - N/A   Overcast
3:00 PM 60.8 °F 59.0 °F 94% 30.14 in 15.0 mi SE 10.4 mph - N/A   Overcast
4:00 PM 60.8 °F 59.0 °F 94% 30.15 in 15.0 mi SE 16.1 mph - N/A   Overcast
5:00 PM 62 °F 59 °F 85% 30.16 in 15 mi SSE 16.1 mph - -   Partly Cloudy
5:00 PM 62.6 °F 59.0 °F 88% 30.16 in 15.0 mi SE 16.1 mph - N/A   Mostly Cloudy
6:00 PM 60.8 °F 59.0 °F 94% 30.16 in 15.0 mi SSE 12.7 mph - N/A   Overcast
7:00 PM 60.8 °F 57.2 °F 88% 30.17 in 15.0 mi South 10.4 mph - N/A   Overcast
8:00 PM 60.8 °F 59.0 °F 94% 30.18 in 15.0 mi South 9.2 mph - N/A   Overcast
9:00 PM 60.8 °F 59.0 °F 94% 30.19 in 15.0 mi South 6.9 mph - N/A   Mostly Cloudy
10:00 PM 60.8 °F 59.0 °F 94% 30.20 in 15.0 mi South 5.8 mph - N/A   Mostly Cloudy
11:00 PM 60 °F 58 °F 92% 30.22 in 15 mi South 3.5 mph - -   Mostly Cloudy
11:00 PM 60.8 °F 59.0 °F 94% 30.22 in 15.0 mi SSW 3.5 mph - N/A   Mostly Cloudy